"Pseudo-MPEC" for P20UXsM

Created 2019 Dec 3 23:07:36 UT using Find_Orb

Click here for an explanation of pseudo-MPECs

 
 Astrometry: 
     P20UXsM  C2019 11 28mrj'Sinndo8Cy@.hOJ;5@`,cp7^XQ2PBm^eaRO0EM0am)wByf=9LF52
     P20UXsM  C2019 11 28Zcdr'vI9'E,e1Gq:XpAstrometrygh25`;2\nxS-J3ph_xe/klTxF52
     P20UXsM  C2019 11 281?y\redacted;Z1S!Se6mZPOT]\%K-m0+2?vXNclickNCm(hereMF52
     P20UXsM  C2019 11 2893)mRs`2Pj;*(RcSfor_explanation1cDC]t1IE$Q%,Dli7DR1lF52

Station data:
(F52) Pan-STARRS 2, Haleakala  (N20.707384 W156.255910)  US/Hawaii. 1.8-m
   Ritchey-Chrétien + CCD.

Orbital elements:  P20UXsM
   Perihelion 2020 Jan 4.975921 +/- 27.2 TT = 23:25:19 (JD 2458853.475921)
Epoch 2019 Nov 28.0 TT = JDT 2458815.5   Earth MOID: 0.0097   AutoNEOCP
M 330.21477406 +/- 15               (J2000 ecliptic)
n   0.78431872 +/- 0.375            Peri.  226.30555 +/- 60
a   1.16450401 +/- 0.371            Node   240.76644 +/- 52
e   0.1724270 +/- 0.254             Incl.    2.57479 +/- 4.7
P   1.26/458.99d           H 28.9   G  0.15   U 12.1  SR
q 0.96371206 +/- 0.151    Q 1.36529596 +/- 38
From 4 observations 2019 Nov. 28 (46.3 min); mean residual 0".13
Residuals in arcseconds: 
191128 F52  .15+  .11-    191128 F52  .01-  .08-    
191128 F52  .22-  .21+    191128 F52  .08+  .02-    

Ephemerides (geocentric):
Date (UTC) HH   RA              Dec         delta   r     elong  mag " sig PA
---- -- -- --  -------------   -----------  ------ ------ -----  --- ---- ---
2019 12 03 23  07 50 19.357   -24 17 34.95  .01188 0.9906 114.3 21.5  48d  10
2019 12 04 00  07 51 46.594   -24 31 03.85  .01190 0.9906 113.9 21.5  48d  10
2019 12 04 01  07 53 13.858   -24 44 26.93  .01192 0.9905 113.5 21.5  48d  10
2019 12 04 02  07 54 41.141   -24 57 44.11  .01194 0.9904 113.2 21.6  48d  10
2019 12 04 03  07 56 08.436   -25 10 55.31  .01196 0.9904 112.8 21.6  48d  10
2019 12 04 04  07 57 35.736   -25 24 00.47  .01198 0.9903 112.4 21.6  48d  10
2019 12 04 05  07 59 03.035   -25 36 59.52  .01200 0.9902 112.1 21.6  48d  10
2019 12 04 06  08 00 30.326   -25 49 52.40  .01203 0.9902 111.7 21.6  48d  10
2019 12 04 07  08 01 57.602   -26 02 39.05  .01205 0.9901 111.3 21.6  48d  10
2019 12 04 08  08 03 24.856   -26 15 19.42  .01207 0.9900 111.0 21.6  48d  10
2019 12 04 09  08 04 52.081   -26 27 53.44  .01210 .98996 110.6 21.7  48d  10
2019 12 04 10  08 06 19.271   -26 40 21.08  .01212 .98989 110.3 21.7  48d  10
2019 12 04 11  08 07 46.419   -26 52 42.27  .01214 .98982 109.9 21.7  48d  10
2019 12 04 12  08 09 13.518   -27 04 56.98  .01217 .98975 109.6 21.7  48d  10
2019 12 04 13  08 10 40.561   -27 17 05.16  .01220 .98969 109.2 21.7  48d   9
2019 12 04 14  08 12 07.542   -27 29 06.78  .01222 .98962 108.9 21.7  48d   9
2019 12 04 15  08 13 34.454   -27 41 01.79  .01225 .98955 108.5 21.8  48d   9
2019 12 04 16  08 15 01.290   -27 52 50.17  .01228 .98948 108.2 21.8  48d   9
2019 12 04 17  08 16 28.044   -28 04 31.88  .01231 .98942 107.8 21.8  48d   9
2019 12 04 18  08 17 54.709   -28 16 06.89  .01233 .98935 107.5 21.8  48d   9
2019 12 04 19  08 19 21.279   -28 27 35.18  .01236 .98928 107.1 21.8  48d   9
2019 12 04 20  08 20 47.747   -28 38 56.73  .01239 .98921 106.8 21.8  48d   9
2019 12 04 21  08 22 14.107   -28 50 11.52  .01242 .98915 106.5 21.8  47d   9
2019 12 04 22  08 23 40.352   -29 01 19.52  .01245 .98908 106.1 21.9  47d   9
2019 12 04 23  08 25 06.477   -29 12 20.73  .01248 .98901 105.8 21.9  47d   9
2019 12 05 00  08 26 32.474   -29 23 15.13  .01252 .98895 105.5 21.9  47d   9
2019 12 05 01  08 27 58.338   -29 34 02.71  .01255 .98888 105.1 21.9  47d   9
2019 12 05 02  08 29 24.062   -29 44 43.47  .01258 .98881 104.8 21.9  47d   9
2019 12 05 03  08 30 49.641   -29 55 17.40  .01261 .98875 104.5 21.9  47d   9
2019 12 05 04  08 32 15.069   -30 05 44.49  .01265 .98868 104.2 22.0  47d   9
2019 12 05 05  08 33 40.338   -30 16 04.76  .01268 .98861 103.8 22.0  47d   9
2019 12 05 06  08 35 05.445   -30 26 18.19  .01271 .98855 103.5 22.0  47d   9
2019 12 05 07  08 36 30.382   -30 36 24.80  .01275 .98848 103.2 22.0  47d   9
2019 12 05 08  08 37 55.144   -30 46 24.60  .01278 .98841 102.9 22.0  47d   9
2019 12 05 09  08 39 19.726   -30 56 17.58  .01282 .98835 102.6 22.0  47d   9
2019 12 05 10  08 40 44.121   -31 06 03.77  .01286 .98828 102.3 22.1  47d   9
2019 12 05 11  08 42 08.325   -31 15 43.17  .01289 .98822 102.0 22.1  47d   9
2019 12 05 12  08 43 32.332   -31 25 15.80  .01293 .98815 101.6 22.1  47d   8
2019 12 05 13  08 44 56.136   -31 34 41.67  .01297 .98808 101.3 22.1  47d   8
2019 12 05 14  08 46 19.733   -31 44 00.82  .01301 .98802 101.0 22.1  46d   8
2019 12 05 15  08 47 43.117   -31 53 13.25  .01304 .98795 100.7 22.1  46d   8
2019 12 05 16  08 49 06.283   -32 02 18.99  .01308 .98789 100.4 22.2  46d   8
2019 12 05 17  08 50 29.226   -32 11 18.07  .01312 .98782 100.1 22.2  46d   8
2019 12 05 18  08 51 51.942   -32 20 10.50  .01316 .98776  99.8 22.2  46d   8
2019 12 05 19  08 53 14.425   -32 28 56.33  .01320 .98769  99.6 22.2  47d   8
2019 12 05 20  08 54 36.671   -32 37 35.57  .01324 .98762  99.3 22.2  47d   7
2019 12 05 21  08 55 58.675   -32 46 08.26  .01328 .98756  99.0 22.2  48d   6
2019 12 05 22  08 57 20.433   -32 54 34.43  .01332 .98749  98.7 22.3  49d   6